千帆星座-39 (QIANFAN-39)

基本信息
目录编号:
62240
目录名称:
QIANFAN-39
国际标识:
2024-232D
轨道中心:
EARTH
卫星名称:
千帆星座-39
卫星全名:
千帆星座-39 (QIANFAN-39)
卫星状态:
在轨 (已飞行464 天)
发射日期:
2024-12-05 UTC
国别 :
中国 (CN)
星等 :
--
轨道信息
数据来源 国际轨道数据 AOE轨道数据
星历时间 2026-03-13T21:01:44+0800
12小时前
查看轨道信息
2026-03-12T14:00:00+0800
1天前
查看轨道信息
半长轴 7185.136km 7185.116km
偏心率 0.0017533 0.0016591
轨道倾角 89.007° 89.008°
近地点辐角 134.479° 138.239°
升交点赤经 26.926° 27.074°
平近点角 225.784° 71.791°
近地点 794.401km 795.058km
远地点 819.597km 818.9km
周期 101.021分钟 101.021分钟
每日圈数 14.254446 14.254506
详细信息
卫星平台:
39
覆盖范围:
全球
运营商:
上海垣信卫星科技有限公司
运营商所在国:
中国
使用方式:
暂无
卫星简介
千帆星座,也被称为“G60星链”计划,是中国版“星链”的重要组成部分,旨在打造一个由1.4万多颗低轨宽频多媒体卫星构成的庞大星座。千帆星座计划由上海垣信卫星科技有限公司负责实施,于2023年启动建设。该项目是我国第二个低轨卫星大星座,旨在通过构建庞大的卫星网络,为全球用户提供高质量的通信和宽带互联网服务。
2D轨道图
3D轨道图
轨道高度分析图
轨道倾角分析图
轨道综合分析图
查看轨道综合分析图